Date String (YYYY-MM-DD hh:mm:ss) UTC,Instrument flags,Ambient pressure (hPa),Sample flow (lpm),Bypass flow (lpm),Sample temperature (°C),Ambient temperature (°C),ASC tube jacket temperature (°C),LED temperature (°C),Box temperature (°C),Sample RH (%),Span deviation,Mass concentration (μg/m³),Mass concentration (μg/m³),Mass concentration (μg/m³)
DateTimeUTC,F1_M11,P_M11,Q1_M11,Q2_M11,T1_M11,T2_M11,T3_M11,T4_M11,T5_M11,U1_M11,ZSPAN_M11,X0_M11,X2_M11,X1_M11
2022-01-11 01:00:00,,0834.8,5.00,0.00,28.3,27.5,00.0,37.5,30.0,05.7,0000.0,0005.78,0001.83,0001.07
2022-01-11 01:01:00,,0834.8,5.01,0.00,28.3,27.5,00.0,37.5,30.0,05.6,0000.0,0005.12,0001.79,0001.06
2022-01-11 01:02:00,,0834.8,4.99,0.00,28.3,27.5,00.0,37.5,30.0,05.6,0000.0,0003.97,0001.80,0001.06
2022-01-11 01:03:00,,0834.8,5.00,0.00,28.3,27.5,00.0,37.5,30.0,05.6,0000.0,0004.29,0001.75,0001.05
2022-01-11 01:04:00,,0834.8,5.00,0.00,28.3,27.5,00.0,37.5,30.0,05.6,0000.0,0004.33,0001.72,0001.05
2022-01-11 01:05:00,,0834.8,5.00,0.00,28.3,27.4,00.0,37.5,29.9,05.5,0000.0,0004.98,0001.75,0001.05
2022-01-11 01:06:00,,0834.8,4.98,0.00,28.2,27.4,00.0,37.4,29.9,05.5,0000.0,0004.85,0001.72,0001.04
2022-01-11 01:07:00,,0834.8,5.01,0.00,28.2,27.4,00.0,37.4,29.9,05.5,0000.0,0004.76,0001.68,0001.04
2022-01-11 01:08:00,,0834.7,5.00,0.00,28.2,27.3,00.0,37.4,29.9,05.3,0000.0,0005.13,0001.67,0001.04
2022-01-11 01:09:00,,0834.7,5.00,0.00,28.2,27.4,00.0,37.4,29.9,05.2,0000.0,0005.43,0001.63,0001.03
2022-01-11 01:10:00,,0834.7,4.99,0.00,28.2,27.3,00.0,37.4,29.9,05.3,0000.0,0005.24,0001.59,0001.01
2022-01-11 01:11:00,,0834.7,5.00,0.00,28.2,27.3,00.0,37.3,29.9,05.3,0000.0,0004.92,0001.48,0000.98
2022-01-11 01:12:00,,0834.7,4.99,0.00,28.2,27.3,00.0,37.3,29.9,05.4,0000.0,0004.91,0001.44,0000.97
2022-01-11 01:13:00,,0834.7,5.01,0.00,28.2,27.3,00.0,37.3,29.8,05.4,0000.0,0004.51,0001.38,0000.96
2022-01-11 01:14:00,,0834.7,5.00,0.00,28.1,27.3,00.0,37.3,29.8,05.3,0000.0,0003.88,0001.34,0000.95
2022-01-11 01:15:00,,0834.7,5.00,0.00,28.1,27.3,00.0,37.3,29.8,05.3,0000.0,0003.79,0001.32,0000.94
2022-01-11 01:16:00,,0834.7,5.01,0.00,28.1,27.3,00.0,37.3,29.8,05.2,0000.0,0002.94,0001.24,0000.92
2022-01-11 01:17:00,,0834.7,5.00,0.00,28.1,27.2,00.0,37.3,29.8,05.1,0000.0,0002.91,0001.22,0000.90
2022-01-11 01:18:00,,0834.6,4.99,0.00,28.1,27.2,00.0,37.2,29.7,05.1,0000.0,0002.99,0001.19,0000.89
2022-01-11 01:19:00,,0834.6,5.01,0.00,28.0,27.2,00.0,37.2,29.7,05.1,0000.0,0003.86,0001.17,0000.88
2022-01-11 01:20:00,,0834.6,4.99,0.00,28.0,27.2,00.0,37.2,29.7,04.9,0000.0,0003.28,0001.14,0000.87
2022-01-11 01:21:00,,0834.5,5.01,0.00,28.0,27.2,00.0,37.2,29.7,05.0,0000.0,0003.20,0001.11,0000.87
2022-01-11 01:22:00,,0834.5,4.99,0.00,28.0,27.1,00.0,37.2,29.6,05.0,0000.0,0003.19,0001.11,0000.87
2022-01-11 01:23:00,,0834.5,5.00,0.00,28.0,27.1,00.0,37.2,29.7,04.9,0000.0,0003.06,0001.10,0000.87
2022-01-11 01:24:00,,0834.5,4.99,0.00,28.0,27.1,00.0,37.1,29.6,04.9,0000.0,0002.95,0001.08,0000.86
2022-01-11 01:25:00,,0834.6,5.01,0.00,27.9,27.1,00.0,37.1,29.6,04.9,0000.0,0002.98,0001.09,0000.85
2022-01-11 01:26:00,,0834.6,5.00,0.00,27.9,27.1,00.0,37.1,29.6,05.0,0000.0,0002.97,0001.07,0000.85
2022-01-11 01:27:00,,0834.5,4.99,0.00,27.9,27.1,00.0,37.1,29.6,05.0,0000.0,0002.99,0001.10,0000.86
2022-01-11 01:28:00,,0834.5,5.02,0.00,27.9,27.0,00.0,37.1,29.6,05.0,0000.0,0002.93,0001.09,0000.87
2022-01-11 01:29:00,,0834.6,4.99,0.00,27.9,27.0,00.0,37.1,29.6,05.0,0000.0,0002.94,0001.10,0000.87
2022-01-11 01:30:00,,0834.5,5.01,0.00,27.9,27.0,00.0,37.0,29.5,05.0,0000.0,0001.78,0001.11,0000.87
2022-01-11 01:31:00,,0834.5,4.99,0.00,27.8,27.0,00.0,37.0,29.5,05.0,0000.0,0001.70,0001.14,0000.88
2022-01-11 01:32:00,,0834.5,5.02,0.00,27.8,27.0,00.0,37.0,29.5,04.9,0000.0,0001.90,0001.19,0000.88
2022-01-11 01:33:00,,0834.5,4.99,0.00,27.8,27.0,00.0,37.0,29.5,04.8,0000.0,0002.25,0001.20,0000.87
2022-01-11 01:34:00,,0834.5,5.02,0.00,27.8,27.0,00.0,37.0,29.5,04.7,0000.0,0003.16,0001.19,0000.85
2022-01-11 01:35:00,,0834.5,5.00,0.00,27.8,27.0,00.0,37.0,29.5,04.6,0000.0,0003.17,0001.18,0000.85
2022-01-11 01:36:00,,0834.4,4.99,0.00,27.8,26.9,00.0,36.9,29.4,04.6,0000.0,0003.15,0001.15,0000.84
2022-01-11 01:37:00,,0834.5,5.01,0.00,27.8,26.9,00.0,36.9,29.4,04.5,0000.0,0003.11,0001.13,0000.83
2022-01-11 01:38:00,,0834.5,5.01,0.00,27.7,26.9,00.0,36.9,29.4,04.6,0000.0,0003.05,0001.09,0000.81
2022-01-11 01:39:00,,0834.5,4.99,0.00,27.7,26.9,00.0,36.9,29.4,04.6,0000.0,0003.10,0001.10,0000.81
2022-01-11 01:40:00,,0834.4,5.01,0.00,27.7,26.8,00.0,36.9,29.4,04.6,0000.0,0003.05,0001.07,0000.79
2022-01-11 01:41:00,,0834.5,4.99,0.00,27.7,26.8,00.0,36.9,29.4,04.5,0000.0,0003.04,0001.06,0000.78
2022-01-11 01:42:00,,0834.4,5.00,0.00,27.7,26.8,00.0,36.9,29.4,04.7,0000.0,0002.96,0001.02,0000.76
2022-01-11 01:43:00,,0834.4,5.01,0.00,27.7,26.8,00.0,36.8,29.4,04.2,0000.0,0002.77,0000.95,0000.75
2022-01-11 01:44:00,,0834.4,5.00,0.00,27.7,26.8,00.0,36.8,29.3,03.9,0000.0,0002.34,0000.92,0000.73
2022-01-11 01:45:00,,0834.4,5.00,0.00,27.6,26.8,00.0,36.8,29.3,04.2,0000.0,0001.54,0000.92,0000.72
2022-01-11 01:46:00,,0834.4,5.01,0.00,27.6,26.7,00.0,36.8,29.3,04.4,0000.0,0001.46,0000.90,0000.71
2022-01-11 01:47:00,,0834.4,4.99,0.00,27.6,26.7,00.0,36.8,29.3,04.5,0000.0,0001.43,0000.91,0000.71
2022-01-11 01:48:00,,0834.4,5.00,0.00,27.6,26.7,00.0,36.8,29.3,04.6,0000.0,0001.40,0000.89,0000.71
2022-01-11 01:49:00,,0834.4,5.01,0.00,27.6,26.7,00.0,36.8,29.2,04.7,0000.0,0001.40,0000.89,0000.71
2022-01-11 01:50:00,,0834.3,5.01,0.00,27.6,26.7,00.0,36.7,29.3,04.8,0000.0,0001.38,0000.88,0000.71
2022-01-11 01:51:00,,0834.3,5.01,0.00,27.5,26.8,00.0,36.7,29.2,05.0,0000.0,0001.36,0000.89,0000.71
2022-01-11 01:52:00,,0834.3,4.99,0.00,27.5,26.7,00.0,36.7,29.2,05.4,0000.0,0001.32,0000.88,0000.72
2022-01-11 01:53:00,,0834.3,5.01,0.00,27.5,26.7,00.0,36.7,29.2,05.8,0000.0,0001.49,0000.91,0000.74
2022-01-11 01:54:00,,0834.3,4.99,0.00,27.5,26.7,00.0,36.7,29.2,05.6,0000.0,0001.74,0000.95,0000.75
2022-01-11 01:55:00,,0834.3,5.00,0.00,27.5,26.7,00.0,36.7,29.2,05.0,0000.0,0001.76,0000.97,0000.76
2022-01-11 01:56:00,,0834.3,5.01,0.00,27.5,26.7,00.0,36.7,29.2,04.7,0000.0,0001.73,0000.96,0000.77
2022-01-11 01:57:00,,0834.3,5.00,0.00,27.5,26.7,00.0,36.7,29.2,04.5,0000.0,0001.75,0000.97,0000.78
2022-01-11 01:58:00,,0834.3,4.98,0.00,27.5,26.6,00.0,36.6,29.2,04.7,0000.0,0001.73,0000.95,0000.77
2022-01-11 01:59:00,,0834.3,5.01,0.00,27.4,26.6,00.0,36.6,29.1,05.2,0000.0,0001.78,0000.98,0000.77
